Miscellaneous Local Product
Issued by NWS Hastings, NE

Home | Current Version | Previous Version | Text Only | Print | Product List | Glossary Off
Versions: 1 2 3 4 5 6 7 8 9 10 11 12 13 14 15 16 17 18 19 20 21 22 23 24 25 26 27 28 29 30 31 32 33 34 35 36 37 38 39 40 41 42 43 44 45 46 47 48 49 50

805
AXUS43 KGID 240902
MISGRI

GID CWA HOURLY WEATHER ROUNDUP
NATIONAL WEATHER SERVICE HASTINGS NE
400 AM CDT SAT SEP 24 2016

NOTE: "FAIR" INDICATES FEW OR NO CLOUDS BELOW 12,000 FEET WITH NO
SIGNIFICANT WEATHER AND/OR OBSTRUCTIONS TO VISIBILITY.

...SOUTH CENTRAL NEBRASKA...

CITY           SKY/WX    TMP DP  RH WIND       PRES   REMARKS
GRAND ISLAND   CLEAR     71  64  78 SE16G23   29.88S
HASTINGS       CLEAR     70  64  81 SE10      29.89S
KEARNEY        MOCLDY    72  63  73 SE14      29.86S
ORD            MOCLDY    72  62  71 SE13G22   29.84R
YORK           PTCLDY    72  64  78 S10G20    29.91F
AURORA         MOCLDY    71  65  83 SE12      29.90S
LEXINGTON      PTCLDY    70  64  81 SE12      29.84S
HOLDREGE       RAIN      71  64  78 S14G22    29.86R
HEBRON         PTCLDY    71  64  78 SE9       29.90F

...NEBRASKA PANHANDLE...

CITY           SKY/WX    TMP DP  RH WIND       PRES   REMARKS
CHADRON        MOCLDY    51  45  79 W8        29.84F
ALLIANCE       CLOUDY    49  45  86 W13       29.90R
SCOTTSBLUFF    RAIN      47  43  86 W23G33    29.97R
SIDNEY         LGT RAIN  48  41  76 NW23G40   29.97R

...WESTERN AND NORTH CENTRAL NEBRASKA...

CITY           SKY/WX    TMP DP  RH WIND       PRES   REMARKS
VALENTINE      LGT RAIN  58  50  75 W5        29.82F
AINSWORTH      CLOUDY    70  63  77 S10       29.84R
ONEILL         CLEAR     72  62  71 SE17G25   29.85S
BROKEN BOW     MOCLDY    68  63  84 SE9       29.84S
IMPERIAL       PTCLDY    55  49  80 NW16G24   29.91R
NORTH PLATTE   CLOUDY    68  61  78 SW8       29.81R
MCCOOK         CLOUDY    69  54  58 SW12      29.85R

...EASTERN NEBRASKA...

CITY           SKY/WX    TMP DP  RH WIND       PRES   REMARKS
NORFOLK        PTCLDY    71  62  73 SE12      29.90F
SO SIOUX CITY  PTCLDY    68  64  87 SE8       29.93F
TEKAMAH        PTCLDY    69  64  84 SE7       29.94F
COLUMBUS       CLEAR    N/A N/A N/A SE10      29.91S
ALBION         CLEAR     71  63  75 SE13G20   29.89S
OMAHA EPPLEY   PTCLDY    72  63  73 SE12      29.95F
OFFUTT AFB     PTCLDY    71  65  82 SE7       29.95F
MILLARD        CLOUDY    73  65  78 SE6       29.95F
LINCOLN        CLEAR     73  64  73 S13       29.93F
NEBRASKA CITY  CLOUDY    70  59  69 S6        29.97F
BEATRICE       MOCLDY    73  64  73 SE12      29.94F
FALLS CITY     PTCLDY    70  65  84 SE8       29.96F

...NORTHERN KANSAS...

CITY           SKY/WX    TMP DP  RH WIND       PRES   REMARKS
GOODLAND       PTCLDY    56  38  50 SW15      29.90R
HILL CITY      LGT RAIN  69  64  84 SW10      29.88R
NORTON         LGT RAIN  72  63  73 S14       29.85S
PHILLIPSBURG   PTCLDY    70  64  83 E6        29.86R
SMITH CENTER   CLOUDY    70  64  83 SE16      29.86S
HAYS           MOCLDY    73  61  64 S16       29.87R
CONCORDIA      CLEAR     71  67  87 SE10      29.90F
SALINA         CLEAR     72  67  84 SE10      29.91F
TOPEKA         PTCLDY    73  65  75 SE8       29.97F



USA.gov is the U.S. government's official web portal to all federal, state and local government web resources and services.